EW9528 Weather Reports


Display with metric or nautical units.
time (UTC)temp
F
wind
direction
speed
MPH
gust
MPH
rain 1hr
in
rain 24hr
in
rain mn
in
humidity
%
barometer
mb
20260508122539 47 292 0.0 0.0 0.00 0.00 0.00 54 1018.7
20260508121621 48 292 0.0 0.0 0.00 0.00 0.00 53 1018.5
20260508120624 49 292 0.0 0.0 0.00 0.00 0.00 51 1018.7
20260508115623 50 292 1.0 2.0 0.00 0.00 0.00 51 1018.5
20260508114721 49 292 1.0 2.0 0.00 0.00 0.00 53 1018.3
20260508112838 49 292 0.0 0.0 0.00 0.00 0.00 57 1018.2
20260508111823 48 292 0.0 0.0 0.00 0.00 0.00 58 1018.2
20260508110822 49 292 0.0 0.0 0.00 0.00 0.00 57 1018.2
20260508105920 49 292 0.0 0.0 0.00 0.00 0.00 56 1018.2
20260508104922 49 292 0.0 0.0 0.00 0.00 0.00 54 1018.2
20260508103921 51 292 0.0 0.0 0.00 0.00 0.00 53 1018.0
20260508102921 50 292 1.0 1.0 0.00 0.00 0.00 52 1017.9
20260508100924 50 292 0.0 0.0 0.00 0.00 0.00 55 1017.9
20260508100020 50 292 0.0 0.0 0.00 0.00 0.00 54 1017.9
20260508095021 50 292 0.0 0.0 0.00 0.00 0.00 55 1017.9
20260508094022 50 292 0.0 0.0 0.00 0.00 0.00 56 1017.8
20260508093021 50 337 0.0 0.0 0.00 0.00 0.00 55 1017.8
20260508092022 50 63 0.0 0.0 0.00 0.00 0.00 54 1017.9
20260508091021 50 67 2.0 3.0 0.00 0.00 0.00 54 1017.8
20260508085121 52 67 0.0 0.0 0.00 0.00 0.00 49 1017.7
20260508084122 53 67 0.0 1.0 0.00 0.00 0.00 46 1017.6
20260508082222 53 337 0.0 0.0 0.00 0.00 0.00 47 1017.6
20260508081236 53 337 0.0 0.0 0.00 0.00 0.00 47 1017.6
20260508080222 52 337 0.0 1.0 0.00 0.00 0.00 49 1017.7
20260508075321 52 337 0.0 0.0 0.00 0.00 0.00 49 1017.7
20260508074323 53 292 0.0 0.0 0.00 0.00 0.00 46 1017.7
20260508073420 54 292 0.0 0.0 0.00 0.00 0.00 46 1017.6
20260508071421 53 292 1.0 1.0 0.00 0.00 0.00 46 1017.8
20260508070421 53 292 0.0 0.0 0.00 0.00 0.00 46 1017.8
20260508065423 54 292 0.0 0.0 0.00 0.00 0.00 45 1017.8
20260508063538 55 292 0.0 1.0 0.00 0.00 0.00 44 1017.5
20260508060637 56 292 0.0 0.0 0.00 0.00 0.00 42 1017.4
20260508054725 57 292 2.0 3.0 0.00 0.00 0.00 42 1017.2
20260508053727 56 67 1.0 1.0 0.00 0.00 0.00 45 1017.3
20260508052727 55 67 0.0 0.0 0.00 0.00 0.00 45 1017.3
20260508051825 56 67 0.0 0.0 0.00 0.00 0.00 44 1017.3
20260508050842 56 67 0.0 0.0 0.00 0.00 0.00 42 1017.1
20260508050725 57 67 0.0 0.0 0.00 0.00 0.00 42 1017.1
20260508045743 58 67 0.0 0.0 0.00 0.00 0.00 41 1017.1
20260508044827 59 45 1.0 3.0 0.00 0.00 0.00 39 1017.2
20260508043926 59 270 1.0 1.0 0.00 0.00 0.00 38 1017.1
20260508042927 59 270 0.0 1.0 0.00 0.00 0.00 37 1017.2
20260508042024 60 270 2.0 2.0 0.00 0.00 0.00 37 1017.1
20260508041026 60 270 1.0 2.0 0.00 0.00 0.00 36 1017.2
20260508040027 60 270 0.0 1.0 0.00 0.00 0.00 36 1017.1
20260508035125 61 270 2.0 2.0 0.00 0.00 0.00 36 1017.1
20260508034126 62 270 1.0 1.0 0.00 0.00 0.00 35 1017.0
20260508033127 62 292 0.0 0.0 0.00 0.00 0.00 33 1017.0
20260508032125 63 292 0.0 0.0 0.00 0.00 0.00 33 1016.9
20260508031126 63 292 0.0 1.0 0.00 0.00 0.00 33 1016.7
20260508025126 65 292 0.0 0.0 0.00 0.00 0.00 30 1016.6
20260508024127 66 292 0.0 0.0 0.00 0.00 0.00 31 1016.6
20260508023128 68 180 0.0 0.0 0.00 0.00 0.00 30 1016.3
20260508022226 69 180 0.0 0.0 0.00 0.00 0.00 29 1016.3
20260508021226 70 180 0.0 0.0 0.00 0.00 0.00 28 1016.3
20260508015243 72 180 1.0 2.0 0.00 0.00 0.00 23 1016.0
20260508014325 73 180 1.0 2.0 0.00 0.00 0.00 22 1016.2
20260508013328 74 180 0.0 1.0 0.00 0.00 0.00 22 1016.0
20260508010328 73 360 0.0 0.0 0.00 0.00 0.00 21 1016.4
20260508005326 73 45 0.0 0.0 0.00 0.00 0.00 22 1016.4
20260508004326 73 45 2.0 3.0 0.00 0.00 0.00 22 1016.4
20260508003341 74 16 2.0 3.0 0.00 0.00 0.00 21 1016.4
20260508002326 74 45 1.0 3.0 0.00 0.00 0.00 21 1016.6
20260508000342 75 157 2.0 3.0 0.00 0.00 0.00 21 1016.7
20260507234425 75 112 0.0 1.0 0.00 0.00 0.00 21 1016.9
20260507233426 75 45 0.0 1.0 0.00 0.00 0.00 21 1017.1
20260507232425 75 344 1.0 4.0 0.00 0.00 0.00 21 1017.0
20260507231442 75 37 7.0 9.0 0.00 0.00 0.00 20 1017.1
20260507230443 75 22 2.0 4.0 0.00 0.00 0.00 20 1017.1
20260507225529 75 315 0.0 1.0 0.00 0.00 0.00 20 1017.1
20260507224626 75 153 0.0 1.0 0.00 0.00 0.00 21 1017.3
20260507223628 75 165 7.0 10.0 0.00 0.00 0.00 20 1017.5
20260507221741 74 202 4.0 4.0 0.00 0.00 0.00 22 1017.7
20260507220725 73 186 4.0 6.0 0.00 0.00 0.00 21 1017.8
20260507215825 73 203 3.0 4.0 0.00 0.00 0.00 21 1018.1
20260507214827 74 185 3.0 4.0 0.00 0.00 0.00 20 1018.1
20260507213825 74 179 4.0 5.0 0.00 0.00 0.00 21 1018.2
20260507212825 73 128 3.0 5.0 0.00 0.00 0.00 21 1018.4
20260507211827 73 161 3.0 6.0 0.00 0.00 0.00 21 1018.6
20260507210826 72 157 3.0 5.0 0.00 0.00 0.00 21 1018.8
20260507205827 72 158 6.0 10.0 0.00 0.00 0.00 22 1018.9
20260507204825 72 154 4.0 7.0 0.00 0.00 0.00 22 1019.0
20260507203842 71 165 5.0 9.0 0.00 0.00 0.00 23 1019.2
20260507202926 70 183 4.0 8.0 0.00 0.00 0.00 23 1019.2
20260507202826 70 160 4.0 7.0 0.00 0.00 0.00 23 1019.3
20260507201826 70 170 5.0 7.0 0.00 0.00 0.00 23 1019.5
20260507200826 70 157 5.0 8.0 0.00 0.00 0.00 23 1019.6
20260507195827 70 138 4.0 6.0 0.00 0.00 0.00 22 1019.5
20260507194825 69 182 5.0 7.0 0.00 0.00 0.00 23 1019.7
20260507192827 68 166 6.0 8.0 0.00 0.00 0.00 23 1020.1
20260507190943 66 161 3.0 6.0 0.00 0.00 0.00 24 1020.5
20260507185927 66 161 5.0 7.0 0.00 0.00 0.00 24 1020.6
20260507185025 66 157 3.0 4.0 0.00 0.00 0.00 24 1020.8
20260507184926 66 158 5.0 7.0 0.00 0.00 0.00 24 1020.7
20260507182942 66 143 4.0 5.0 0.00 0.00 0.00 25 1020.8
20260507182025 65 178 4.0 5.0 0.00 0.00 0.00 25 1021.0
20260507181926 65 149 3.0 7.0 0.00 0.00 0.00 25 1020.9
20260507175026 63 128 3.0 5.0 0.00 0.00 0.00 27 1021.4
20260507174044 62 130 4.0 7.0 0.00 0.00 0.00 28 1021.6
20260507173126 61 171 5.0 6.0 0.00 0.00 0.00 31 1021.8
20260507172126 60 127 2.0 4.0 0.00 0.00 0.00 34 1022.0
20260507171225 59 157 3.0 6.0 0.00 0.00 0.00 37 1022.0
20260507170226 59 165 5.0 7.0 0.00 0.00 0.00 38 1022.0
20260507165324 57 175 3.0 5.0 0.00 0.00 0.00 40 1022.1
20260507164326 57 180 3.0 5.0 0.00 0.00 0.00 39 1022.4
20260507163326 57 164 4.0 6.0 0.00 0.00 0.00 41 1022.5
20260507155425 55 157 2.0 3.0 0.00 0.00 0.00 47 1022.7
20260507154428 55 163 3.0 7.0 0.00 0.00 0.00 47 1022.8
20260507153428 54 132 2.0 5.0 0.00 0.00 0.00 48 1022.9
20260507152440 54 158 3.0 6.0 0.00 0.00 0.00 49 1022.9
20260507150527 53 186 2.0 5.0 0.00 0.00 0.00 52 1023.0
20260507145625 51 180 0.0 2.0 0.00 0.00 0.00 54 1023.0
20260507144626 51 180 2.0 3.0 0.00 0.00 0.00 56 1022.9
20260507143628 50 112 0.0 2.0 0.00 0.00 0.00 55 1023.0
20260507142726 50 112 0.0 1.0 0.00 0.00 0.00 55 1023.0
20260507141726 50 45 0.0 0.0 0.00 0.00 0.00 55 1022.9
20260507140726 49 45 0.0 0.0 0.00 0.00 0.00 59 1022.9
20260507135826 47 45 3.0 3.0 0.00 0.00 0.00 65 1022.8
20260507134826 46 45 0.0 0.0 0.00 0.00 0.00 68 1022.6
20260507134725 46 45 0.0 0.0 0.00 0.00 0.00 68 1022.6
20260507133726 45 47 3.0 6.0 0.00 0.00 0.00 68 1022.6
20260507132726 44 247 1.0 2.0 0.00 0.00 0.00 70 1022.4
20260507131726 43 247 1.0 1.0 0.00 0.00 0.00 71 1022.4
20260507125742 42 247 0.0 0.0 0.00 0.00 0.00 72 1022.2
20260507125628 42 247 0.0 1.0 0.00 0.00 0.00 72 1022.1
20260507124625 42 247 0.0 0.0 0.00 0.00 0.00 72 1022.1
20260507123626 41 247 2.0 3.0 0.00 0.00 0.00 73 1022.0